KRISTIANSAND/KJEVIK current weather conditions

sailwx.info

Wind from 220 at 17 knots

Air temperature 8.0° C
Visibility: greater than 3.8 NM
Dewpoint 8.0° C
Present weather: Rain.

Last reported at 2019-Dec-05 23:50 UTC.
Time now 2019-Dec-06 01:14 UTC

Location: N 58°12' E 008°05'.
View on Google Maps.

See reports from other nearby stations

  
Tides and Currents Weather Stations Pressure Air Temp Water Temp Dewpoint Dewpoint Depression Visibility Wind Speed Wind Dir Waves Ship Positions
date/time (UTC)wind fromknots sea level pressurealtimeterstation pressurevisibilityair tempwater tempwave heightnotes
2019-Dec-05 23:50 220 17 3.8 8.0 Rain.
2019-Dec-05 23:20 220 19 3.8 8.0 Light rain.
2019-Dec-05 22:50 220 18 4.9 8.0 Light rain.
2019-Dec-05 22:20 220 18 5.4 8.0 Light rain.
2019-Dec-05 21:50 220 13 5.4 7.0 Light rain.
2019-Dec-05 21:20 230 14 5.4 7.0 Light rain.
2019-Dec-05 20:50 230 18 5.4 7.0 Light rain.
2019-Dec-05 20:20 230 20 5.4 7.0 Light rain.
2019-Dec-05 19:50 230 14 5.4 7.0 Light rain.
2019-Dec-05 19:20 230 18 4.9 7.0 Light rain.
2019-Dec-05 18:50 230 19 5.4 7.0 Light rain.
2019-Dec-05 18:20 230 15 5.4 7.0 Light rain.
2019-Dec-05 17:50 230 18 gusting 28 5.4 7.0 Light rain.
2019-Dec-05 17:20 230 14 5.4 7.0 Light rain.
2019-Dec-05 16:50 240 14 5.4 7.0 Light rain.
2019-Dec-05 16:20 230 14 5.4 7.0 Light drizzle.
2019-Dec-05 15:50 240 15 gusting 27 5.4 8.0 Light rain showers.
2019-Dec-05 15:20 240 14 5.4 8.0
2019-Dec-05 14:50 240 15 5.4 8.0 Light rain showers.
2019-Dec-05 14:20 230 15 5.4 8.0 Showers in the vicinity.
2019-Dec-05 13:50 230 15 5.4 8.0 Showers in the vicinity.
2019-Dec-05 13:20 230 17 5.4 8.0
2019-Dec-05 12:50 230 15 5.4 8.0
2019-Dec-05 12:20 240 13 5.4 8.0
2019-Dec-05 11:50 240 15 5.4 8.0 Light rain showers.
2019-Dec-05 11:20 240 13 5.4 8.0 Light drizzle.
2019-Dec-05 10:50 250 15 gusting 26 5.4 8.0 Showers in the vicinity.
2019-Dec-05 10:20 240 14 5.4 8.0 Showers in the vicinity.
2019-Dec-05 09:50 260 13 gusting 24 5.4 7.0 Showers in the vicinity.
2019-Dec-05 09:20 230 15 gusting 27 5.4 7.0 Showers in the vicinity.
2019-Dec-05 08:50 230 13 5.4 7.0 Light rain showers.
2019-Dec-05 08:20 250 13 5.4 7.0 Showers in the vicinity.
2019-Dec-05 07:50 230 13 5.4 7.0 Light rain drizzle.
2019-Dec-05 07:20 230 13 5.4 7.0 Light rain showers.
2019-Dec-05 06:50 230 14 5.4 7.0 Light rain showers.
2019-Dec-05 06:20 230 15 5.4 7.0
2019-Dec-05 05:50 230 12 5.4 6.0 Light drizzle.
2019-Dec-05 05:20 230 18 3.8 7.0 Rain showers.
2019-Dec-05 04:50 230 13 5.4 7.0 Showers in the vicinity.
2019-Dec-05 04:20 230 9 5.4 7.0
2019-Dec-05 03:50 240 12 5.4 7.0
2019-Dec-05 03:20 230 8 5.4 7.0
2019-Dec-05 02:50 230 11 5.4 7.0
2019-Dec-05 02:20 240 12 5.4 8.0
2019-Dec-05 01:50 230 13 5.4 8.0
2019-Dec-05 01:20 230 12 5.4 8.0
2019-Dec-05 00:50 230 12 5.4 8.0
2019-Dec-05 00:20 230 13 4.9 8.0
2019-Dec-04 23:50 230 13 3.8 8.0 Light rain.
2019-Dec-04 23:20 230 13 3.2 7.0
2019-Dec-04 22:50 230 14 2.7 8.0
2019-Dec-04 22:20 230 13 5.4 7.0
2019-Dec-04 21:50 220 13 5.4 7.0
2019-Dec-04 21:20 230 12 4.3 7.0 Light drizzle.
2019-Dec-04 20:50 220 12 5.4 8.0
2019-Dec-04 20:20 220 13 5.4 8.0
2019-Dec-04 19:50 220 13 5.4 8.0
2019-Dec-04 19:20 220 11 5.4 7.0
2019-Dec-04 18:50 220 9 5.4 7.0
2019-Dec-04 18:20 230 13 5.4 8.0
2019-Dec-04 17:50 220 11 5.4 7.0
2019-Dec-04 17:20 210 8 5.4 7.0
2019-Dec-04 16:50 220 7 5.4 7.0
2019-Dec-04 16:20 210 8 5.4 6.0
2019-Dec-04 15:50 190 8 5.4 6.0
2019-Dec-04 15:20 210 6 5.4 6.0
2019-Dec-04 14:50 240 7 5.4 7.0
2019-Dec-04 14:20 240 8 5.4 7.0
2019-Dec-04 13:50 240 7 5.4 7.0
2019-Dec-04 13:20 230 6 5.4 7.0
2019-Dec-04 12:50 230 6 5.4 7.0
2019-Dec-04 12:20 250 8 5.4 7.0
2019-Dec-04 11:50 250 9 5.4 7.0
2019-Dec-04 11:20 240 8 5.4 7.0
2019-Dec-04 10:50 230 6 5.4 7.0
2019-Dec-04 10:20 210 6 5.4 6.0
2019-Dec-04 09:50 210 6 5.4 6.0
2019-Dec-04 09:20 200 5 5.4 6.0
2019-Dec-04 08:50 5.4 6.0
2019-Dec-04 08:20 210 5 5.4 5.0
2019-Dec-04 07:50 190 6 5.4 5.0
2019-Dec-04 07:20 5.4 5.0
2019-Dec-04 06:50 5.4 5.0
2019-Dec-04 06:20 240 4 5.4 5.0
2019-Dec-04 05:50 270 6 5.4 5.0
2019-Dec-04 05:20 240 4 5.4 5.0
2019-Dec-04 04:50 260 5 5.4 6.0
2019-Dec-04 04:20 270 7 5.4 6.0
2019-Dec-04 03:50 270 4 5.4 6.0
2019-Dec-04 03:20 280 6 5.4 7.0
2019-Dec-04 02:50 250 6 5.4 6.0
2019-Dec-04 02:20 260 4 5.4 6.0
2019-Dec-04 01:50 270 6 5.4 7.0
2019-Dec-04 01:20 280 6 5.4 7.0